DW8873 Weather Reports


Display with metric or nautical units.
time (UTC)temp
F
wind
direction
speed
MPH
gust
MPH
rain 1hr
in
rain 24hr
in
rain mn
in
humidity
%
barometer
mb
20260508122136 58 258 0.0 1.0 0.00 0.00 0.00 70 1021.0
20260508121032 58 258 0.0 1.0 0.00 0.00 0.00 70 1021.0
20260508120031 58 258 0.0 1.0 0.00 0.00 0.00 69 1021.0
20260508115029 58 258 0.0 1.0 0.00 0.00 0.00 68 1021.0
20260508114028 58 258 0.0 1.0 0.00 0.00 0.00 68 1021.0
20260508113026 58 258 1.0 1.0 0.00 0.00 0.00 68 1021.0
20260508112025 58 258 1.0 1.0 0.00 0.00 0.00 68 1021.0
20260508111024 59 258 0.0 1.0 0.00 0.00 0.00 67 1020.7
20260508110022 59 258 0.0 2.0 0.00 0.00 0.00 66 1020.7
20260508105020 59 258 1.0 2.0 0.00 0.00 0.00 66 1020.7
20260508104019 59 258 0.0 3.0 0.00 0.00 0.00 65 1020.3
20260508103017 59 252 2.0 3.0 0.00 0.00 0.00 65 1020.3
20260508101913 60 291 2.0 4.0 0.00 0.00 0.00 64 1020.3
20260508100840 60 249 1.0 4.0 0.00 0.00 0.00 63 1020.0
20260508095838 60 265 1.0 7.0 0.00 0.00 0.00 63 1020.0
20260508094836 60 254 1.0 7.0 0.00 0.00 0.00 62 1020.0
20260508093835 61 259 1.0 6.0 0.00 0.00 0.00 61 1019.6
20260508092834 61 278 1.0 7.0 0.00 0.00 0.00 60 1019.6
20260508091832 61 253 2.0 9.0 0.00 0.00 0.00 58 1019.3
20260508090830 61 268 1.0 9.0 0.00 0.00 0.00 57 1019.3
20260508085829 61 244 2.0 11.0 0.00 0.00 0.00 56 1019.3
20260508084828 62 255 3.0 5.0 0.00 0.00 0.00 55 1018.9
20260508083826 62 255 2.0 7.0 0.00 0.00 0.00 54 1018.9
20260508082825 62 252 2.0 7.0 0.00 0.00 0.00 53 1018.6
20260508081752 62 225 1.0 7.0 0.00 0.00 0.00 53 1018.6
20260508080750 63 252 2.0 7.0 0.00 0.00 0.00 51 1018.3
20260508075749 63 269 2.0 5.0 0.00 0.00 0.00 51 1018.3
20260508074747 63 264 2.0 5.0 0.00 0.00 0.00 50 1018.3
20260508073746 63 276 1.0 5.0 0.00 0.00 0.00 50 1017.9
20260508072744 64 333 2.0 5.0 0.00 0.00 0.00 50 1017.9
20260508071743 64 250 3.0 8.0 0.00 0.00 0.00 50 1017.6
20260508070741 65 252 2.0 8.0 0.00 0.00 0.00 49 1017.3
20260508065739 65 244 2.0 9.0 0.00 0.00 0.00 49 1016.9
20260508064738 65 262 2.0 9.0 0.00 0.00 0.00 49 1016.9
20260508063736 66 252 2.0 6.0 0.00 0.00 0.00 48 1016.6
20260508062735 66 325 2.0 10.0 0.00 0.00 0.00 49 1016.3
20260508061733 67 276 2.0 10.0 0.00 0.00 0.00 47 1016.3
20260508060731 67 222 2.0 9.0 0.00 0.00 0.00 46 1016.3
20260508055725 67 275 2.0 10.0 0.00 0.00 0.00 44 1015.9
20260508054723 67 261 2.0 10.0 0.00 0.00 0.00 44 1015.9
20260508053721 67 254 2.0 8.0 0.00 0.00 0.00 43 1015.6
20260508052718 68 273 2.0 8.0 0.00 0.00 0.00 42 1015.6
20260508051657 68 235 1.0 6.0 0.00 0.00 0.00 43 1015.6
20260508050655 68 251 1.0 9.0 0.00 0.00 0.00 42 1015.3
20260508045653 69 257 3.0 9.0 0.00 0.00 0.00 41 1015.3
20260508044652 69 277 3.0 10.0 0.00 0.00 0.00 42 1015.3
20260508043651 70 257 4.0 10.0 0.00 0.00 0.00 41 1015.3
20260508042649 71 228 1.0 10.0 0.00 0.00 0.00 42 1014.9
20260508041648 71 271 2.0 7.0 0.00 0.00 0.00 42 1014.9
20260508040615 71 259 2.0 6.0 0.00 0.00 0.00 42 1014.9
20260508035613 70 297 2.0 9.0 0.00 0.00 0.00 43 1014.9
20260508034612 70 290 3.0 8.0 0.00 0.00 0.00 42 1014.9
20260508033611 70 258 2.0 12.0 0.00 0.00 0.00 42 1014.9
20260508032609 70 252 2.0 12.0 0.00 0.00 0.00 41 1015.3
20260508031537 70 257 3.0 10.0 0.00 0.00 0.00 42 1015.3
20260508030504 70 236 3.0 10.0 0.00 0.00 0.00 41 1015.3
20260508025502 70 268 2.0 8.0 0.00 0.00 0.00 42 1015.6
20260508024500 70 273 4.0 8.0 0.00 0.00 0.00 41 1015.6
20260508023459 69 273 2.0 8.0 0.00 0.00 0.00 42 1015.6
20260508022457 69 269 2.0 9.0 0.00 0.00 0.00 43 1015.9
20260508021455 69 266 3.0 9.0 0.00 0.00 0.00 42 1015.9
20260508020453 69 246 2.0 7.0 0.00 0.00 0.00 44 1016.3
20260508015452 68 293 2.0 10.0 0.00 0.00 0.00 44 1016.3
20260508014450 67 282 2.0 10.0 0.00 0.00 0.00 46 1016.3
20260508013448 66 256 3.0 11.0 0.00 0.00 0.00 45 1016.6
20260508012447 66 277 3.0 11.0 0.00 0.00 0.00 46 1016.6
20260508011445 66 252 4.0 9.0 0.00 0.00 0.00 45 1017.0
20260508010443 65 269 2.0 8.0 0.00 0.00 0.00 49 1016.9
20260508005442 64 264 2.0 6.0 0.00 0.00 0.00 49 1017.3
20260508004440 64 255 2.0 5.0 0.00 0.00 0.00 49 1017.3
20260508003439 63 230 1.0 6.0 0.00 0.00 0.00 51 1017.6
20260508002406 63 259 3.0 6.0 0.00 0.00 0.00 49 1017.6
20260508001404 63 271 1.0 4.0 0.00 0.00 0.00 51 1017.6
20260508000404 62 254 2.0 7.0 0.00 0.00 0.00 51 1017.6
20260507235329 62 279 1.0 8.0 0.00 0.00 0.00 52 1017.9
20260507234327 62 202 1.0 5.0 0.00 0.00 0.00 52 1018.0
20260507233325 62 258 2.0 7.0 0.00 0.00 0.00 52 1018.0
20260507232324 61 41 1.0 6.0 0.00 0.00 0.00 54 1017.9
20260507231322 60 260 1.0 6.0 0.00 0.00 0.00 54 1017.9
20260507230321 60 249 1.0 4.0 0.00 0.00 0.00 53 1017.9
20260507225320 61 255 2.0 4.0 0.00 0.00 0.00 52 1018.0
20260507224318 62 277 1.0 3.0 0.00 0.00 0.00 53 1018.0
20260507223317 61 61 2.0 3.0 0.00 0.00 0.00 55 1018.0
20260507222315 60 5 1.0 2.0 0.00 0.00 0.00 57 1017.6
20260507221314 58 10 1.0 2.0 0.00 0.00 0.00 60 1017.6
20260507220242 56 2 1.0 1.0 0.00 0.00 0.00 63 1017.6
20260507215240 54 341 0.0 3.0 0.00 0.00 0.00 66 1017.6
20260507214239 53 273 1.0 4.0 0.00 0.00 0.00 68 1017.6
20260507213238 51 340 2.0 4.0 0.00 0.00 0.00 70 1017.6
20260507212236 49 44 2.0 2.0 0.00 0.00 0.00 78 1017.2
20260507211234 48 45 0.0 1.0 0.00 0.00 0.00 82 1017.6
20260507210233 47 45 0.0 0.0 0.00 0.00 0.00 81 1017.6
20260507205232 47 45 0.0 1.0 0.00 0.00 0.00 80 1017.6
20260507204231 47 45 1.0 1.0 0.00 0.00 0.00 79 1017.2
20260507203230 47 18 0.0 1.0 0.00 0.00 0.00 78 1017.2
20260507202228 47 18 0.0 1.0 0.00 0.00 0.00 77 1017.2
20260507201227 47 18 1.0 1.0 0.00 0.00 0.00 78 1017.2
20260507200225 47 23 0.0 1.0 0.00 0.00 0.00 79 1017.6
20260507195223 47 23 0.0 2.0 0.00 0.00 0.00 78 1017.2
20260507194119 47 23 1.0 2.0 0.00 0.00 0.00 77 1017.2
20260507193118 47 23 0.0 0.0 0.00 0.00 0.00 77 1017.2
20260507192116 47 23 0.0 1.0 0.00 0.00 0.00 76 1017.2
20260507191114 47 23 0.0 1.0 0.00 0.00 0.00 76 1017.2
20260507190113 47 23 0.0 1.0 0.00 0.00 0.00 76 1017.2
20260507185111 47 23 1.0 1.0 0.00 0.00 0.00 75 1017.2
20260507184110 47 23 1.0 1.0 0.00 0.00 0.00 74 1017.2
20260507183037 47 23 0.0 1.0 0.00 0.00 0.00 73 1017.2
20260507182035 48 23 0.0 0.0 0.00 0.00 0.00 72 1017.2
20260507181034 48 23 0.0 0.0 0.00 0.00 0.00 71 1016.9
20260507180001 48 23 0.0 1.0 0.00 0.00 0.00 71 1017.2
20260507174959 48 23 0.0 3.0 0.00 0.00 0.00 71 1017.2
20260507173957 48 23 1.0 3.0 0.00 0.00 0.00 70 1017.2
20260507172925 49 133 1.0 1.0 0.00 0.00 0.00 69 1017.6
20260507171852 49 133 0.0 1.0 0.00 0.00 0.00 68 1017.6
20260507170850 49 133 0.0 1.0 0.00 0.00 0.00 67 1017.6
20260507165849 49 133 0.0 1.0 0.00 0.00 0.00 66 1017.6
20260507164848 50 133 0.0 3.0 0.00 0.00 0.00 65 1017.9
20260507163846 50 133 0.0 3.0 0.00 0.00 0.00 64 1017.9
20260507162845 51 217 0.0 3.0 0.00 0.00 0.00 63 1017.9
20260507161843 51 247 1.0 5.0 0.00 0.00 0.00 62 1017.9
20260507160841 51 241 2.0 5.0 0.00 0.00 0.00 61 1017.9
20260507155808 51 256 1.0 5.0 0.00 0.00 0.00 61 1017.9
20260507154807 51 231 2.0 5.0 0.00 0.00 0.00 60 1018.3
20260507153806 51 274 2.0 6.0 0.00 0.00 0.00 60 1018.3
20260507152804 51 258 2.0 8.0 0.00 0.00 0.00 59 1018.3
20260507151803 51 248 1.0 10.0 0.00 0.00 0.00 58 1018.3
20260507150801 51 272 2.0 12.0 0.00 0.00 0.00 58 1018.6
20260507145658 52 254 0.0 12.0 0.00 0.00 0.00 57 1018.6
20260507144656 52 261 2.0 7.0 0.00 0.00 0.00 56 1018.6
20260507143655 52 277 2.0 8.0 0.00 0.00 0.00 57 1018.6
20260507142653 51 245 2.0 8.0 0.00 0.00 0.00 56 1018.6
20260507141651 51 234 2.0 8.0 0.00 0.00 0.00 57 1018.6
20260507140650 51 258 2.0 6.0 0.00 0.00 0.00 57 1018.6
20260507135648 51 234 1.0 5.0 0.00 0.00 0.00 57 1018.6
20260507134647 51 250 1.0 4.0 0.00 0.00 0.00 57 1018.6
20260507133646 51 227 2.0 7.0 0.00 0.00 0.00 57 1018.6
20260507132645 51 254 2.0 7.0 0.00 0.00 0.00 57 1018.6
20260507131644 51 229 1.0 4.0 0.00 0.00 0.00 56 1018.6
20260507130642 52 248 2.0 4.0 0.00 0.00 0.00 56 1018.6
20260507125641 52 221 1.0 4.0 0.00 0.00 0.00 56 1018.6
20260507124639 52 270 2.0 3.0 0.00 0.00 0.00 56 1018.6
20260507123637 52 240 1.0 8.0 0.00 0.00 0.00 55 1018.6